Location: Bidart
(43.4376°N, 1.5913°W)
Time: 22:04:53
(UTC+00:00)

Cosmos 1975 - Pass Details

Date: 19 May 2025
Orbit: 487 x 506 km, 82.5° (Epoch: 12 June)

Event Time Altitude Azimuth Distance (km) Brightness Sun altitude
Rises 22:45:44 0° 357° (N) 2,570 7.5 -24.2°
Reaches altitude 10° 22:47:54 10° 3° (N) 1,683 6.2 -24.3°
Enters shadow 22:50:35 39° 34° (NE) 750 3.7 -24.4°
